Date,TemperatureHighF,TemperatureAvgF,TemperatureLowF,DewpointHighF,DewpointAvgF,DewpointLowF,HumidityHigh,HumidityAvg,HumidityLow,PressureMaxIn,PressureMinIn,WindSpeedMaxMPH,WindSpeedAvgMPH,GustSpeedMaxMPH,PrecipitationSumIn
2014-1-1,47,32,21,32,26,21,100,79,40,28.18,27.95,6,0,6,0.00
2014-1-2,46,33,17,46,32,18,100,95,72,27.96,27.49,22,1,22,0.06
2014-1-3,27,16,10,18,11,4,100,78,43,28.20,27.72,21,2,24,0.00
2014-1-4,43,29,12,38,21,8,100,71,29,28.22,28.00,13,0,13,0.00
2014-1-5,48,44,38,48,43,38,100,96,82,28.00,27.54,7,0,8,0.05
2014-1-6,44,21,0,44,17,-6,100,80,56,28.02,27.50,20,2,20,0.07
2014-1-7,21,7,-3,8,-2,-6,96,66,28,28.25,27.99,8,1,17,0.00
2014-1-8,52,23,4,18,12,4,100,67,22,28.35,28.16,6,0,6,0.00
2014-1-9,51,33,17,33,21,11,100,66,23,28.32,28.17,10,0,10,0.01
2014-1-10,51,41,33,50,41,33,100,99,94,28.24,27.86,4,0,4,0.45
2014-1-11,58,49,43,55,46,32,100,90,53,27.86,27.45,13,1,13,1.40
2014-1-12,57,42,29,35,31,28,100,65,34,27.98,27.65,8,1,40,0.00
2014-1-13,56,39,25,42,32,26,100,79,37,27.97,27.73,11,0,11,0.00
2014-1-14,54,43,26,43,35,26,100,79,36,27.82,27.61,13,1,14,0.12
2014-1-15,39,30,23,33,26,18,100,84,60,27.81,27.72,10,0,10,0.00
2014-1-16,47,29,16,21,15,8,100,58,23,27.88,27.70,8,0,8,0.00
2014-1-17,49,32,18,28,19,11,100,65,23,27.79,27.61,13,1,13,0.00
2014-1-18,41,26,16,21,14,8,92,61,30,27.92,27.74,15,1,15,0.00
2014-1-19,51,32,19,28,21,14,96,66,35,27.84,27.71,10,0,10,0.00
2014-1-20,65,41,22,29,22,14,95,53,20,27.78,27.63,13,1,13,0.00
2014-1-21,49,29,15,35,24,11,100,82,42,27.73,27.45,18,1,19,0.00
2014-1-22,31,18,8,11,4,-13,86,56,19,27.90,27.70,20,1,20,0.00
2014-1-23,30,20,8,11,8,-6,76,55,38,28.20,27.84,14,1,14,0.00
2014-1-24,32,12,0,8,-2,-13,90,54,19,28.36,27.96,14,0,14,0.00
2014-1-25,39,24,5,28,13,0,97,65,24,27.95,27.51,18,1,18,0.00
2014-1-26,57,38,20,28,19,8,75,45,22,27.76,27.60,10,1,12,0.00
2014-1-27,53,37,21,36,25,0,85,62,38,27.94,27.65,14,1,14,0.00
2014-1-28,23,19,15,21,13,0,99,75,39,28.03,27.92,10,0,10,0.00
2014-1-29,28,15,4,14,3,-13,99,63,19,28.12,27.92,14,1,14,0.04
2014-1-30,39,18,-4,16,7,0,100,67,26,28.14,27.96,7,0,7,0.04
2014-1-31,59,30,11,24,16,11,100,65,15,28.02,27.87,5,0,5,0.00
2014-2-1,59,37,18,29,22,14,100,64,16,28.03,27.87,6,0,6,0.00
2014-2-2,68,45,24,50,37,24,100,79,45,27.95,27.78,5,0,6,0.00
2014-2-3,58,48,35,58,45,33,100,89,59,28.02,27.64,12,1,13,0.62
2014-2-4,44,38,32,38,36,32,100,94,77,28.10,27.86,5,0,5,0.21
2014-2-5,59,43,27,50,38,24,100,84,59,27.97,27.65,18,2,19,0.24
2014-2-6,37,28,22,26,23,21,95,80,54,28.12,27.96,15,1,16,0.00
2014-2-7,50,34,27,29,25,23,89,72,41,28.13,27.99,7,0,7,0.00
2014-2-8,52,37,27,35,29,26,100,75,43,28.03,27.88,4,0,6,0.00
2014-2-9,57,39,24,44,32,24,100,80,41,27.98,27.76,10,1,10,0.00
2014-2-10,36,33,30,35,32,29,100,97,89,27.99,27.84,4,0,4,0.11
2014-2-11,32,30,25,31,30,26,100,99,96,28.09,27.96,3,0,3,0.03
2014-2-12,27,24,21,26,22,16,100,93,71,28.12,27.63,6,0,6,0.00
2014-2-13,35,30,25,32,27,23,100,91,64,27.62,27.46,17,1,17,0.00
2014-2-14,61,41,25,35,27,21,88,60,23,27.67,27.49,12,1,12,0.56
2014-2-15,39,31,24,36,24,14,98,76,45,27.88,27.40,22,2,22,0.01
2014-2-16,57,38,20,31,25,18,100,63,33,27.94,27.80,9,1,9,0.00
2014-2-17,47,38,25,33,29,26,100,71,47,28.08,27.94,11,1,11,0.00
2014-2-18,66,45,27,40,28,16,100,60,19,28.04,27.85,11,0,11,0.00
2014-2-19,70,52,41,58,44,35,100,79,34,27.91,27.74,11,1,11,0.22
2014-2-20,69,56,42,55,50,41,100,82,55,27.93,27.71,13,1,13,0.00
2014-2-21,62,52,35,57,35,11,100,59,19,27.87,27.62,10,1,14,0.64
2014-2-22,66,46,33,31,21,8,76,42,12,28.01,27.85,5,0,8,0.00
2014-2-23,70,47,28,35,29,21,97,56,20,27.94,27.70,10,1,10,0.00
2014-2-24,56,44,28,35,27,14,82,53,26,27.96,27.76,14,1,15,0.00
2014-2-25,58,40,25,29,24,18,87,55,27,27.93,27.73,13,1,13,0.00
2014-2-26,43,34,24,24,19,16,74,54,35,27.77,27.61,14,1,15,0.00
2014-2-27,47,31,20,16,6,0,73,37,14,27.79,27.63,14,1,15,0.00
2014-2-28,46,32,16,18,13,8,96,48,24,28.03,27.78,9,0,9,0.01
2014-3-1,59,41,26,32,26,16,89,57,33,28.09,27.96,8,0,9,0.00
2014-3-2,71,49,27,47,39,28,100,73,41,28.04,27.74,10,1,10,0.00
2014-3-3,58,43,30,50,40,29,100,89,59,27.97,27.56,11,1,12,0.24
2014-3-4,48,33,23,32,25,18,100,72,42,28.08,27.91,6,0,7,0.00
2014-3-5,61,40,25,35,27,18,94,62,28,28.00,27.84,7,0,7,0.00
2014-3-6,40,35,29,36,23,16,100,64,37,30.14,27.91,5,0,9,0.22
2014-3-7,57,41,34,44,37,33,100,87,56,30.06,29.94,7,1,7,0.28
2014-3-8,68,47,29,48,34,29,100,67,29,30.15,29.99,11,1,12,0.00
2014-3-9,65,52,36,39,32,21,69,49,25,30.16,30.03,14,2,14,0.00
2014-3-10,71,48,28,41,34,26,94,61,30,30.12,29.87,13,1,14,0.00
2014-3-11,78,53,32,44,36,31,100,62,22,29.94,29.72,10,1,10,0.00
2014-3-12,70,54,32,57,44,24,94,71,37,29.84,29.39,15,3,24,0.01
2014-3-13,41,31,22,28,14,0,96,52,19,30.25,29.84,21,2,21,0.04
2014-3-14,60,39,18,24,18,11,99,50,19,30.30,30.07,15,1,15,0.00
2014-3-15,68,51,35,37,30,23,81,46,24,30.11,30.01,13,1,13,0.00
2014-3-16,46,42,39,46,37,31,100,85,66,30.08,29.77,3,0,3,0.14
2014-3-17,39,35,31,39,35,31,100,99,95,29.93,29.77,3,0,3,0.08
2014-3-18,49,38,31,43,36,31,100,91,77,30.09,29.89,6,0,6,0.00
2014-3-19,56,47,39,46,43,39,100,87,68,30.13,29.98,7,1,10,0.00
2014-3-20,60,48,37,43,28,16,100,54,17,30.12,29.99,9,1,16,0.00
2014-3-21,64,46,24,32,24,18,98,48,18,30.22,30.03,7,1,9,0.00
2014-3-22,71,54,40,41,34,26,84,50,29,30.08,29.96,6,0,11,0.00
2014-3-23,49,43,38,46,36,24,99,78,49,30.16,30.01,12,1,16,0.31
2014-3-24,57,41,29,29,22,8,74,50,20,30.25,30.01,9,1,9,0.00
2014-3-25,42,34,25,37,26,14,100,73,43,30.07,27.70,19,2,19,0.02
2014-3-26,46,30,21,18,12,4,79,48,22,30.30,30.07,16,2,18,0.00
2014-3-27,59,40,20,26,20,14,100,52,21,30.38,30.20,12,1,12,0.00
2014-3-28,56,52,48,53,48,26,98,85,37,30.22,30.09,11,0,11,0.00
2014-3-29,64,53,39,58,51,35,100,93,76,30.12,29.68,17,1,17,0.20
2014-3-30,51,41,32,35,30,24,100,69,40,30.12,29.86,29,4,30,0.09
2014-3-31,75,54,33,32,23,4,76,34,10,30.21,30.06,12,1,12,0.00
2014-4-1,79,57,38,42,36,28,87,51,20,30.19,30.00,12,1,12,0.00
2014-4-2,82,59,37,47,37,23,100,56,18,30.17,30.00,9,1,9,0.00
2014-4-3,81,73,57,53,48,38,59,43,23,30.09,29.90,11,4,11,0.00
2014-4-4,72,65,60,56,49,42,82,58,39,29.95,29.80,12,3,12,0.00
2014-4-5,66,55,43,42,32,28,76,44,23,30.08,29.92,11,3,11,0.00
2014-4-6,57,48,37,41,37,33,97,67,43,30.15,30.05,5,0,7,0.02
2014-4-7,55,48,43,55,47,40,100,99,84,30.08,29.70,10,0,10,1.89
2014-4-8,55,49,44,55,41,36,100,77,51,29.81,29.68,10,2,16,0.01
2014-4-9,61,51,34,43,36,24,100,63,27,30.04,29.81,15,2,15,0.00
2014-4-10,71,68,65,36,34,32,32,29,27,30.18,30.12,10,4,10,0.00
2014-4-11,74,66,40,41,37,36,85,37,26,30.24,30.07,9,3,10,0.00
2014-4-12,77,70,59,49,41,36,58,36,22,30.22,30.10,9,1,9,0.00
2014-4-13,77,66,55,53,50,44,80,59,38,30.18,30.06,12,1,12,0.00
2014-4-14,65,61,59,61,56,51,100,84,65,30.06,29.84,10,1,12,0.32
2014-4-15,60,47,32,59,44,23,100,89,67,30.06,29.71,18,2,19,0.72
2014-4-16,59,41,27,28,22,16,75,51,20,30.38,30.06,13,1,13,0.00
2014-4-17,63,43,26,35,28,23,100,60,24,30.49,30.35,9,0,9,0.00
2014-4-18,55,45,36,45,38,31,100,78,53,30.42,30.21,4,0,4,0.39
2014-4-19,55,48,45,49,46,42,100,94,69,30.26,30.12,12,0,12,0.54
2014-4-20,74,54,39,54,37,18,100,63,14,30.31,30.16,8,0,8,0.01
2014-4-21,81,55,33,47,39,29,100,62,17,30.26,29.96,9,1,9,0.00
2014-4-22,67,56,46,59,50,43,96,82,52,30.00,27.65,7,0,7,0.13
2014-4-23,72,58,47,56,34,21,100,45,16,30.04,29.84,15,1,15,0.00
2014-4-24,72,54,34,41,35,29,96,53,26,30.16,29.97,10,1,10,0.00
2014-4-25,73,60,46,59,50,39,93,71,47,30.02,29.77,15,2,16,0.00
2014-4-26,81,62,45,49,42,31,96,53,19,30.10,29.96,9,0,9,0.00
2014-4-27,81,65,42,54,45,35,100,56,20,30.10,29.93,10,1,10,0.00
2014-4-28,77,69,58,66,57,53,100,69,46,30.01,29.84,10,1,10,0.04
2014-4-29,71,64,59,63,60,58,100,88,70,30.00,29.84,14,1,14,1.22
2014-4-30,70,64,59,60,59,54,100,86,60,30.01,29.89,10,1,16,0.04
2014-5-1,72,60,48,56,47,37,100,67,34,29.97,29.85,8,1,10,0.00
2014-5-2,72,57,45,42,37,31,79,50,29,30.03,29.86,10,1,10,0.00
2014-5-3,74,58,44,42,39,36,85,52,25,30.03,29.92,11,1,11,0.00
2014-5-4,83,69,51,50,42,36,81,41,20,30.09,29.94,11,1,13,0.00
2014-5-5,88,74,48,52,40,31,92,34,14,30.04,29.85,9,1,9,0.00
2014-5-6,81,59,50,53,48,44,94,71,30,30.02,29.92,8,1,8,0.00
2014-5-7,83,71,46,57,51,44,100,52,31,30.18,30.07,8,0,9,0.00
2014-5-8,87,68,46,62,50,44,100,61,25,30.27,30.10,6,0,9,0.00
2014-5-9,76,63,54,63,57,53,100,81,53,30.21,30.11,12,0,12,0.19
2014-5-10,70,62,55,65,59,55,100,92,74,30.16,30.06,3,0,5,0.06
2014-5-11,88,66,50,67,55,45,100,74,24,30.22,30.10,8,0,8,0.00
2014-5-12,85,68,54,67,60,54,100,81,40,30.25,30.14,7,0,8,0.00
2014-5-13,85,69,57,69,60,56,100,76,42,30.22,30.10,7,0,10,0.00
2014-5-14,80,68,55,66,58,54,100,75,45,30.21,30.04,11,1,11,0.20
2014-5-15,68,59,48,66,58,44,100,96,82,30.04,29.91,12,1,13,1.70
2014-5-16,65,51,42,47,41,33,94,71,39,30.15,29.97,10,1,10,0.00
2014-5-17,67,50,34,47,41,35,100,74,38,30.23,30.13,5,0,5,0.00
2014-5-18,61,50,45,53,47,43,100,91,67,30.27,30.19,6,0,6,0.07
2014-5-19,72,55,43,58,46,42,100,78,42,30.34,30.21,8,0,9,0.00
2014-5-20,79,61,44,60,53,44,100,78,45,30.32,30.12,9,0,9,0.00
2014-5-21,87,67,51,64,55,49,100,71,31,30.20,30.02,7,0,7,0.00
2014-5-22,84,71,58,64,59,54,92,68,44,30.13,30.01,13,1,15,0.00
2014-5-23,81,72,61,64,59,56,98,64,46,30.16,30.03,10,2,10,0.00
2014-5-24,82,67,53,57,46,31,93,52,20,30.20,30.07,7,0,8,0.00
2014-5-25,79,63,48,65,57,43,100,83,50,30.23,30.15,8,0,10,0.91
2014-5-26,83,65,55,71,62,55,100,90,44,30.27,30.14,9,0,9,0.17
2014-5-27,87,67,58,67,62,58,100,85,47,30.20,30.04,5,0,5,0.03
2014-5-28,88,67,56,66,60,56,100,84,38,30.14,30.02,10,0,10,0.01
2014-5-29,84,68,57,69,62,57,100,84,46,30.14,30.05,7,0,8,0.00
2014-5-30,85,68,62,69,64,61,100,91,51,30.16,30.07,8,0,8,0.74
2014-5-31,77,67,62,68,64,61,100,90,70,30.22,30.14,6,0,6,0.00
2014-6-1,74,64,56,62,60,55,99,87,59,30.35,30.22,7,0,7,0.00
2014-6-2,78,63,51,63,55,51,100,78,48,30.32,30.16,4,0,7,0.00
2014-6-3,83,66,55,66,60,53,100,81,52,30.21,30.04,6,0,6,0.00
2014-6-4,86,70,55,69,62,55,100,77,46,30.08,29.86,7,0,7,0.00
2014-6-5,82,71,64,68,65,61,100,83,54,29.96,29.84,13,0,13,0.07
2014-6-6,85,72,62,75,63,57,100,77,46,30.02,29.93,8,0,8,0.00
2014-6-7,83,70,59,69,64,59,100,83,52,30.07,29.98,8,0,8,0.03
2014-6-8,86,72,63,74,65,58,100,80,51,30.04,29.88,6,0,6,0.04
2014-6-9,85,69,56,67,61,56,100,79,44,30.01,29.89,5,0,5,0.00
2014-6-10,86,72,59,70,62,59,100,76,44,30.06,29.94,12,0,12,0.00
2014-6-11,82,70,61,66,63,58,100,81,51,30.03,29.88,9,1,10,0.30
2014-6-12,77,66,60,75,65,60,100,95,66,29.98,29.89,7,0,7,0.45
2014-6-13,82,67,59,66,62,59,100,89,51,30.03,29.90,10,0,10,0.32
2014-6-14,86,68,55,75,60,52,100,80,39,30.14,30.01,6,0,7,0.00
2014-6-15,83,70,58,70,62,58,100,79,51,30.23,30.12,8,0,8,0.00
2014-6-16,87,72,62,69,66,62,100,83,49,30.26,30.17,5,0,6,0.00
2014-6-17,92,74,60,71,65,59,100,78,36,30.26,30.13,6,0,6,0.00
2014-6-18,92,72,63,72,65,61,100,82,39,30.21,30.11,7,0,8,0.00
2014-6-19,91,72,60,72,64,60,100,82,38,30.21,30.08,6,0,6,0.11
2014-6-20,90,71,60,76,64,60,100,84,43,30.16,30.01,5,0,6,0.08
2014-6-21,84,72,63,76,64,57,100,79,42,30.05,29.91,13,0,13,0.01
2014-6-22,89,74,62,68,62,56,100,72,35,30.02,29.88,6,0,6,0.00
2014-6-23,84,73,66,68,65,63,96,79,55,30.15,30.02,8,0,8,0.00
2014-6-24,80,71,65,73,67,63,100,87,62,30.16,30.05,7,0,7,0.33
2014-6-25,83,71,62,75,65,60,100,83,52,30.10,30.00,9,0,9,0.00
2014-6-26,88,72,63,68,63,53,100,76,35,30.12,29.99,6,0,6,0.00
2014-6-27,85,70,65,70,66,63,100,90,55,30.18,30.06,3,0,3,0.44
2014-6-28,82,71,65,76,67,65,100,90,64,30.26,30.16,6,0,6,0.02
2014-6-29,83,71,65,75,68,65,100,92,61,30.27,30.16,7,0,7,0.89
2014-6-30,85,70,64,76,67,64,100,93,51,30.18,30.03,8,0,8,0.09
2014-7-1,90,75,65,77,68,63,100,81,44,30.08,29.94,6,0,6,0.00
2014-7-2,91,76,64,73,66,60,100,77,44,30.06,29.96,6,0,6,0.00
2014-7-3,88,72,62,73,64,54,100,78,50,30.07,29.95,13,0,13,0.00
2014-7-4,79,68,56,59,55,51,90,64,40,30.28,30.07,10,1,11,0.00
2014-7-5,85,64,48,57,53,48,100,72,36,30.34,30.20,8,0,8,0.00
2014-7-6,84,67,51,66,57,51,100,75,38,30.26,30.08,7,0,7,0.00
2014-7-7,85,71,56,68,62,56,100,77,42,30.15,29.98,8,0,9,0.00
2014-7-8,87,72,57,69,63,56,100,78,42,30.12,29.96,7,0,8,0.11
2014-7-9,83,70,63,71,66,62,100,89,50,30.14,30.00,11,0,11,1.08
2014-7-10,83,68,62,76,66,62,100,94,57,30.18,30.08,7,0,7,0.35
2014-7-11,86,72,64,73,66,63,100,84,51,30.26,30.16,7,0,7,0.01
2014-7-12,84,73,64,74,66,62,100,82,52,30.27,30.17,7,0,7,0.01
2014-7-13,87,74,64,72,67,64,100,82,49,30.22,30.07,9,0,9,0.00
2014-7-14,89,74,63,74,67,63,100,82,47,30.11,29.94,12,0,12,0.00
2014-7-15,85,72,64,71,66,61,100,82,54,29.99,29.84,11,0,11,0.00
2014-7-16,83,68,59,63,55,47,93,67,31,30.02,29.91,7,0,8,0.00
2014-7-17,81,67,56,60,56,50,93,70,43,30.15,30.02,8,0,8,0.00
2014-7-18,67,63,59,67,63,58,100,100,94,30.23,30.14,5,0,5,0.95
2014-7-19,65,63,61,65,63,61,100,100,100,30.19,30.13,8,0,8,0.31
2014-7-20,82,68,60,69,65,60,100,92,63,30.17,30.06,8,0,8,0.03
2014-7-21,77,68,63,74,68,63,100,99,81,30.20,30.10,5,0,5,0.08
2014-7-22,82,71,64,78,68,64,100,93,65,30.22,30.11,4,0,5,0.07
2014-7-23,87,71,64,76,69,64,100,94,56,30.18,30.02,2,0,6,0.09
2014-7-24,87,71,65,81,69,64,100,94,51,30.04,29.90,9,0,10,0.07
2014-7-25,83,72,63,71,67,63,100,86,53,30.12,30.01,6,0,8,0.00
2014-7-26,90,74,63,78,65,54,100,79,33,30.11,30.00,6,0,6,0.02
2014-7-27,90,74,65,73,68,64,100,83,47,30.07,29.89,10,0,11,0.08
2014-7-28,80,70,62,71,61,55,100,77,47,30.01,29.91,14,1,14,0.41
2014-7-29,81,66,56,60,56,50,100,71,39,30.10,29.97,10,0,10,0.00
2014-7-30,81,65,52,61,54,50,99,71,39,30.15,30.06,5,0,5,0.00
2014-7-31,70,61,55,67,61,55,100,99,90,30.20,30.14,4,0,4,0.20
2014-8-1,77,65,60,66,62,60,100,91,63,30.19,30.10,6,0,6,0.22
2014-8-2,77,67,61,72,65,61,100,94,69,30.16,30.10,5,0,5,0.01
2014-8-3,87,71,61,69,62,56,100,78,37,30.17,30.05,5,0,5,0.00
2014-8-4,85,69,60,69,64,60,100,86,47,30.17,30.07,10,0,10,0.00
2014-8-5,87,71,62,70,64,60,100,81,44,30.15,30.02,5,0,5,0.00
2014-8-6,86,68,57,75,64,57,100,88,45,30.13,30.00,5,0,5,0.06
2014-8-7,86,70,60,75,63,57,100,83,40,30.11,30.01,6,0,7,0.00
2014-8-8,74,66,62,71,66,62,100,97,80,30.18,30.07,6,0,6,0.60
2014-8-9,85,70,65,75,68,65,100,93,56,30.12,30.02,5,0,8,0.44
2014-8-10,73,67,64,71,66,64,100,98,85,30.14,30.05,4,0,5,0.03
2014-8-11,82,71,65,73,68,65,100,91,63,30.12,29.96,4,0,7,0.00
2014-8-12,90,74,66,80,68,65,100,87,49,30.00,29.83,6,0,6,0.02
2014-8-13,76,68,61,67,59,53,100,78,51,30.09,29.94,11,1,11,0.00
2014-8-14,88,68,54,63,57,49,100,74,29,30.13,29.98,6,0,6,0.00
2014-8-15,87,68,54,67,58,53,100,76,33,30.12,29.98,5,0,5,0.00
2014-8-16,86,69,56,66,60,55,100,78,40,30.13,30.02,3,0,3,0.00
2014-8-17,88,71,59,69,64,59,100,82,42,30.12,30.00,4,0,4,0.00
2014-8-18,83,72,66,80,68,62,100,88,53,30.04,29.86,6,0,6,0.10
2014-8-19,88,72,64,74,66,63,100,83,47,30.00,29.88,5,0,5,0.00
2014-8-20,91,72,61,74,66,61,100,83,44,30.18,30.00,11,0,13,0.00
2014-8-21,91,72,59,69,65,59,100,81,44,30.19,30.10,5,0,6,0.00
2014-8-22,93,75,64,75,67,61,100,79,41,30.17,30.01,9,0,9,0.00
2014-8-23,90,75,65,75,68,64,100,82,46,30.09,29.96,9,0,9,0.00
2014-8-24,81,70,64,73,67,63,100,89,64,30.16,30.01,7,0,7,0.00
2014-8-25,84,68,57,65,62,57,100,82,47,30.21,30.08,5,0,6,0.00
2014-8-26,89,67,50,66,58,50,100,79,38,30.23,30.07,5,0,6,0.00
2014-8-27,91,68,52,65,59,52,100,78,33,30.21,30.03,5,0,5,0.00
2014-8-28,92,72,56,68,62,56,100,75,35,30.14,30.00,5,0,6,0.00
2014-8-29,90,72,60,69,65,60,100,81,46,30.19,30.09,8,0,8,0.00
2014-8-30,86,74,62,72,67,62,100,82,51,30.24,30.13,7,0,8,0.00
2014-8-31,88,72,66,77,69,66,100,91,51,30.22,30.12,5,0,6,0.57
2014-9-1,92,73,64,72,67,62,100,84,39,30.20,30.09,6,0,7,0.00
2014-9-2,91,73,62,79,68,62,100,88,45,30.17,30.01,7,0,8,0.36
2014-9-3,89,73,62,70,65,60,100,79,43,30.17,30.03,7,0,9,0.00
2014-9-4,86,70,64,72,67,64,100,91,61,30.26,30.14,7,0,8,2.14
2014-9-5,87,72,64,78,68,64,100,89,54,30.26,30.11,6,0,6,0.01
2014-9-6,90,72,64,74,68,64,100,90,49,30.17,30.01,5,0,6,0.07
2014-9-7,88,72,62,70,66,61,100,85,51,30.12,29.99,5,0,5,1.34
2014-9-8,78,68,64,71,65,62,100,93,66,30.18,30.08,5,0,5,1.55
2014-9-9,82,69,62,69,65,61,100,87,57,30.18,30.09,7,0,8,0.00
2014-9-10,78,69,64,67,65,63,98,89,64,30.17,30.07,6,0,6,0.00
2014-9-11,86,71,63,76,67,62,99,89,56,30.12,30.01,3,0,5,0.60
2014-9-12,89,72,65,77,68,64,99,89,47,30.13,30.00,6,0,6,0.50
2014-9-13,82,71,64,74,66,62,99,88,60,30.22,30.08,5,0,6,0.01
2014-9-14,69,63,60,63,61,57,98,92,76,30.30,30.20,5,0,6,0.00
2014-9-15,78,67,60,67,63,59,99,90,64,30.26,30.14,6,0,7,0.59
2014-9-16,83,70,61,73,64,60,99,86,54,30.18,29.98,4,0,5,0.00
2014-9-17,76,65,58,66,61,57,99,89,65,30.06,29.96,7,0,7,0.00
2014-9-18,80,65,57,63,59,54,99,83,46,30.09,29.98,4,0,4,0.00
2014-9-19,75,63,56,65,60,55,99,90,63,30.25,30.08,6,0,8,0.00
2014-9-20,81,69,57,62,57,52,98,70,42,30.25,30.08,6,0,6,0.00
2014-9-21,82,75,59,65,62,59,99,65,47,30.06,29.90,4,0,4,0.00
2014-9-22,75,62,54,60,52,48,89,70,45,30.13,29.98,9,2,9,0.00
2014-9-23,72,60,49,55,52,48,99,77,53,30.34,30.25,6,0,7,0.00
2014-9-24,78,60,45,58,48,31,99,74,22,30.38,30.24,5,0,5,0.01
2014-9-25,74,64,58,63,60,57,99,89,66,30.29,30.17,4,0,4,0.01
2014-9-26,71,64,60,63,60,58,99,90,70,30.25,30.18,4,0,5,0.00
2014-9-27,79,66,59,63,59,57,99,83,48,30.26,30.16,5,0,6,0.00
2014-9-28,77,69,55,64,60,54,99,76,57,30.25,30.10,3,0,4,0.00
2014-9-29,66,62,59,65,61,59,99,98,94,30.10,30.01,4,0,4,0.07
2014-9-30,82,65,54,65,58,52,100,82,40,30.04,29.90,4,0,4,0.00
2014-10-1,84,63,48,62,56,47,100,83,42,30.11,29.98,5,0,6,0.00
2014-10-2,85,64,54,66,57,52,100,82,34,30.18,30.05,6,0,7,0.00
2014-10-3,73,63,56,69,62,55,99,96,79,30.11,29.84,7,0,7,0.37
2014-10-4,60,51,36,59,39,29,99,65,34,30.00,29.83,10,1,13,0.00
2014-10-5,70,47,31,44,36,26,100,72,27,30.06,29.93,6,0,6,0.00
2014-10-6,70,53,37,56,47,37,100,83,47,30.10,29.99,11,1,13,0.16
2014-10-7,69,58,52,64,55,51,100,91,62,30.15,27.84,9,0,9,0.20
2014-10-8,81,66,56,65,57,47,100,78,31,30.14,30.02,8,0,8,0.00
2014-10-9,82,62,48,61,54,47,100,79,34,30.21,30.07,7,0,8,0.00
2014-10-10,82,67,54,66,61,54,99,83,51,30.16,30.00,9,0,10,0.01
2014-10-11,79,66,57,68,62,56,99,88,56,30.12,29.98,4,0,5,0.00
2014-10-12,64,59,55,63,58,55,100,98,91,30.24,30.07,4,0,5,0.27
2014-10-13,71,61,54,65,60,54,100,95,77,30.25,30.11,10,0,11,0.40
2014-10-14,67,64,54,66,63,54,100,96,90,30.11,29.77,23,2,23,2.48
2014-10-15,69,54,48,60,50,44,100,87,46,29.93,29.80,6,0,6,0.03
2014-10-16,64,52,46,56,49,46,100,89,56,29.96,29.82,9,0,9,0.11
2014-10-17,81,56,42,54,49,42,100,81,32,30.00,29.83,5,0,6,0.00
2014-10-18,69,60,49,53,48,42,82,65,45,30.04,29.83,19,2,19,0.00
2014-10-19,73,52,41,44,40,35,99,68,27,30.21,30.03,12,1,12,0.00
2014-10-20,75,52,37,53,45,37,100,81,39,30.16,29.96,6,0,6,0.02
2014-10-21,69,53,41,55,44,36,100,74,39,30.06,29.91,10,1,13,0.00
2014-10-22,60,48,43,40,38,36,82,68,45,30.18,30.04,17,1,17,0.00
2014-10-23,68,50,42,42,39,37,88,67,35,30.19,30.03,11,1,11,0.00
2014-10-24,70,49,36,47,39,32,100,74,31,30.13,29.99,4,0,5,0.00
2014-10-25,76,53,36,50,40,29,100,71,20,30.11,29.96,9,0,9,0.00
2014-10-26,77,56,42,59,45,40,100,72,28,30.09,29.94,8,1,11,0.00
2014-10-27,83,57,38,51,45,38,100,73,28,30.19,30.04,7,0,7,0.00
2014-10-28,80,59,43,58,49,42,100,74,29,30.20,30.04,10,0,10,0.00
2014-10-29,70,53,46,57,48,38,99,84,61,30.10,30.00,8,0,9,0.00
2014-10-30,70,49,36,44,36,28,100,68,22,30.12,29.96,7,0,7,0.00
2014-10-31,60,42,31,44,37,31,100,84,47,30.04,29.84,12,0,12,0.00
2014-11-1,37,32,30,35,32,31,100,97,82,30.14,29.81,17,2,17,0.10
2014-11-2,47,36,29,32,26,23,89,66,40,30.40,30.14,15,1,15,0.05
2014-11-3,71,42,21,35,26,11,100,64,11,30.48,30.29,5,0,5,0.00
2014-11-4,75,49,31,40,32,21,100,62,13,30.37,30.17,7,0,7,0.00
2014-11-5,65,52,41,51,42,32,92,71,40,30.29,30.14,7,0,8,0.00
2014-11-6,69,57,44,57,43,29,90,63,24,30.14,29.81,19,2,20,0.03
2014-11-7,54,42,29,35,32,29,100,69,46,30.12,29.99,16,1,19,0.00
2014-11-8,60,41,25,42,32,26,100,76,40,30.10,29.93,8,0,8,0.00
2014-11-9,68,46,31,40,35,29,100,73,27,30.07,29.92,6,0,6,0.00
2014-11-10,68,45,28,45,37,28,100,78,40,30.13,30.04,10,0,10,0.00
2014-11-11,76,47,27,45,34,28,100,71,19,30.14,29.91,5,0,6,0.00
2014-11-12,68,48,35,53,43,35,100,84,54,30.10,29.99,8,1,8,0.00
2014-11-13,47,40,28,44,37,26,98,90,74,30.12,30.02,9,1,40,0.01
2014-11-14,37,27,21,26,18,14,93,70,40,30.30,30.10,8,1,13,0.00
2014-11-15,46,28,13,23,16,14,100,65,27,30.43,30.26,7,0,7,0.00
2014-11-16,58,43,31,41,27,16,93,54,31,30.30,30.00,7,0,7,0.01
2014-11-17,55,40,23,55,38,18,100,92,73,30.02,29.66,16,1,16,1.31
2014-11-18,33,20,12,21,12,4,100,69,37,30.28,30.00,18,1,20,0.00
2014-11-19,44,26,9,21,14,8,100,63,26,30.35,30.18,3,0,7,0.00
2014-11-20,56,36,21,31,24,18,100,65,29,30.20,30.04,7,1,10,0.00
2014-11-21,58,38,23,24,18,4,81,47,15,30.49,30.19,10,1,10,0.00
2014-11-22,58,38,17,26,21,18,100,57,26,30.52,30.27,9,0,10,0.00
2014-11-23,56,47,39,55,41,21,100,84,36,30.28,29.73,11,0,13,1.90
2014-11-24,70,58,48,54,51,44,96,79,50,29.96,29.72,12,1,12,0.00
2014-11-25,60,48,43,46,33,18,96,60,22,30.12,29.96,10,0,10,0.01
2014-11-26,55,42,32,44,37,32,100,86,48,30.06,29.94,8,0,9,0.60
2014-11-27,41,33,27,35,29,21,100,85,61,30.29,29.97,15,1,15,0.00
2014-11-28,47,30,23,26,19,8,99,66,23,30.38,30.23,12,1,14,0.00
2014-11-29,60,39,22,32,28,23,100,68,29,30.27,30.13,7,0,7,0.00
2014-11-30,70,47,27,47,39,28,100,77,41,30.34,30.16,7,0,7,0.00
2014-12-1,73,51,33,50,44,33,100,81,42,30.40,30.24,6,0,7,0.00
2014-12-2,65,48,39,54,46,39,100,93,64,30.36,30.26,7,0,8,0.00
2014-12-3,67,55,48,54,49,45,100,82,50,30.30,30.17,9,1,9,0.00
2014-12-4,61,50,40,49,44,40,100,81,59,30.36,30.25,5,0,5,0.00
2014-12-5,52,48,44,50,46,40,99,94,71,30.42,30.30,6,0,6,0.04
2014-12-6,66,50,43,56,48,40,100,94,68,30.30,30.02,22,1,22,0.06
2014-12-7,58,42,32,41,30,14,92,66,21,30.40,30.23,16,1,16,0.00
2014-12-8,39,35,31,36,26,14,100,71,37,30.40,30.16,5,0,5,0.00
2014-12-9,42,36,29,38,34,29,100,90,76,30.16,30.01,18,1,19,0.00
2014-12-10,41,34,30,33,29,23,93,79,61,30.13,30.04,19,2,19,0.00
2014-12-11,43,32,27,24,21,14,83,63,40,30.20,30.03,18,1,18,0.00
2014-12-12,54,38,23,23,14,4,87,42,12,30.32,30.19,7,1,14,0.00
2014-12-13,58,42,27,24,19,14,75,42,19,30.24,30.09,9,1,11,0.00
2014-12-14,63,39,24,35,25,18,100,67,19,30.15,30.01,10,1,10,0.00
2014-12-15,60,39,19,37,29,21,100,71,33,30.14,29.99,6,0,6,0.00
2014-12-16,64,49,39,51,41,32,99,76,33,30.08,29.82,16,1,16,0.02
2014-12-17,54,43,37,37,34,26,87,69,46,30.18,30.06,12,1,12,0.00
2014-12-18,57,43,34,31,26,16,87,54,26,30.18,30.02,10,1,10,0.00
2014-12-19,54,41,32,33,29,24,81,61,43,30.20,30.07,7,0,7,0.00
2014-12-20,43,40,37,40,37,31,97,90,76,30.21,30.14,4,0,4,0.02
2014-12-21,48,41,38,44,39,38,100,92,73,30.25,30.13,4,0,4,0.00
2014-12-22,47,40,38,44,40,38,100,97,87,30.16,29.97,3,0,4,0.06
2014-12-23,51,44,38,51,44,38,100,99,98,30.03,29.86,10,0,10,0.47
2014-12-24,55,49,43,55,49,41,100,98,87,29.92,29.65,10,0,10,1.19
2014-12-25,52,40,26,41,32,26,100,76,45,30.27,29.78,14,1,16,0.00
2014-12-26,65,38,21,48,30,21,100,81,27,30.36,30.20,4,0,4,0.00
2014-12-27,65,46,31,42,34,23,100,71,24,30.33,30.16,3,0,3,0.00
2014-12-28,61,54,47,57,48,29,99,82,39,30.17,29.99,9,0,9,0.02
2014-12-29,60,50,45,58,49,45,100,96,74,30.12,30.02,5,0,6,0.56
2014-12-30,45,39,28,45,37,26,100,92,76,30.40,30.10,6,0,7,0.04
2014-12-31,45,32,22,31,24,16,100,75,37,30.44,30.30,7,0,8,0.00
2015-1-1,56,35,19,32,26,21,100,71,33,30.34,30.16,5,0,5,0.00
2015-1-2,50,43,36,45,37,31,98,79,63,30.32,30.22,3,0,4,0.06